| time (UTC) | temp F | wind direction | speed MPH | gust MPH | rain 1hr in | rain 24hr in | rain mn in | humidity % | barometer mb |
| 20260510020059 | 77 | 0.0 | 0.0 | 0.00 | 0.00 | 0.00 | 70 | 1009.6 | |
| 20260510015049 | 77 | 0.0 | 1.0 | 0.00 | 0.00 | 0.00 | 68 | 1009.4 | |
| 20260510014040 | 78 | 0.0 | 0.0 | 0.00 | 0.00 | 0.00 | 66 | 1009.2 | |
| 20260510013029 | 78 | 0.0 | 1.0 | 0.00 | 0.00 | 0.00 | 63 | 1009.2 | |
| 20260510012059 | 79 | 107 | 0.0 | 4.0 | 0.00 | 0.00 | 0.00 | 61 | 1009.2 |
| 20260510011130 | 78 | 273 | 0.0 | 2.0 | 0.00 | 0.00 | 0.00 | 61 | 1009.2 |
| 20260510010100 | 78 | 85 | 0.0 | 1.0 | 0.00 | 0.00 | 0.00 | 62 | 1009.1 |
| 20260510005050 | 78 | 216 | 1.0 | 1.0 | 0.00 | 0.00 | 0.00 | 61 | 1008.6 |
| 20260510004040 | 78 | 182 | 2.0 | 7.0 | 0.00 | 0.00 | 0.00 | 60 | 1009.0 |
| 20260510003030 | 78 | 131 | 0.0 | 3.0 | 0.00 | 0.00 | 0.00 | 60 | 1009.0 |
| 20260510002020 | 77 | 180 | 1.0 | 3.0 | 0.00 | 0.00 | 0.00 | 63 | 1009.1 |
| 20260510001111 | 76 | 120 | 1.0 | 6.0 | 0.00 | 0.00 | 0.00 | 65 | 1009.4 |
| 20260509235051 | 83 | 172 | 3.0 | 10.0 | 0.00 | 0.00 | 0.00 | 60 | 1008.9 |
| 20260509234041 | 85 | 157 | 3.0 | 7.0 | 0.00 | 0.00 | 0.00 | 55 | 1008.6 |
| 20260509233031 | 88 | 181 | 1.0 | 6.0 | 0.00 | 0.00 | 0.00 | 61 | 1008.4 |
| 20260509232021 | 88 | 0.0 | 2.0 | 0.00 | 0.00 | 0.00 | 61 | 1008.2 | |
| 20260509231112 | 88 | 0.0 | 1.0 | 0.00 | 0.00 | 0.00 | 61 | 1008.5 | |
| 20260509225052 | 89 | 250 | 0.0 | 1.0 | 0.00 | 0.00 | 0.00 | 59 | 1008.1 |
| 20260509224042 | 89 | 303 | 0.0 | 1.0 | 0.00 | 0.00 | 0.00 | 60 | 1008.0 |
| 20260509223032 | 89 | 74 | 0.0 | 1.0 | 0.00 | 0.00 | 0.00 | 60 | 1008.2 |
| 20260509222022 | 89 | 308 | 0.0 | 2.0 | 0.00 | 0.00 | 0.00 | 57 | 1008.0 |
| 20260509221113 | 90 | 28 | 0.0 | 2.0 | 0.00 | 0.00 | 0.00 | 59 | 1008.0 |
| 20260509215052 | 89 | 83 | 0.0 | 2.0 | 0.00 | 0.00 | 0.00 | 58 | 1007.9 |
| 20260509214123 | 89 | 13 | 0.0 | 2.0 | 0.00 | 0.00 | 0.00 | 60 | 1008.0 |
| 20260509213032 | 91 | 85 | 1.0 | 4.0 | 0.00 | 0.00 | 0.00 | 59 | 1008.0 |
| 20260509212022 | 90 | 37 | 0.0 | 3.0 | 0.00 | 0.00 | 0.00 | 61 | 1008.1 |
| 20260509211113 | 90 | 33 | 1.0 | 2.0 | 0.00 | 0.00 | 0.00 | 61 | 1008.2 |
| 20260509205053 | 90 | 51 | 1.0 | 2.0 | 0.00 | 0.00 | 0.00 | 61 | 1008.6 |
| 20260509204043 | 90 | 206 | 0.0 | 3.0 | 0.00 | 0.00 | 0.00 | 60 | 1008.7 |
| 20260509203113 | 89 | 80 | 0.0 | 1.0 | 0.00 | 0.00 | 0.00 | 63 | 1008.8 |
| 20260509202043 | 89 | 320 | 1.0 | 3.0 | 0.00 | 0.00 | 0.00 | 64 | 1008.7 |
| 20260509201114 | 88 | 315 | 0.0 | 3.0 | 0.00 | 0.00 | 0.00 | 63 | 1008.9 |
| 20260509200124 | 88 | 27 | 0.0 | 2.0 | 0.00 | 0.00 | 0.00 | 66 | 1009.0 |
| 20260509195054 | 89 | 105 | 1.0 | 2.0 | 0.00 | 0.00 | 0.00 | 63 | 1009.2 |
| 20260509194104 | 89 | 237 | 1.0 | 4.0 | 0.00 | 0.00 | 0.00 | 63 | 1009.2 |
| 20260509193034 | 88 | 25 | 0.0 | 2.0 | 0.00 | 0.00 | 0.00 | 64 | 1009.4 |
| 20260509192024 | 89 | 304 | 0.0 | 2.0 | 0.00 | 0.00 | 0.00 | 63 | 1009.4 |
| 20260509191115 | 89 | 88 | 0.0 | 1.0 | 0.00 | 0.00 | 0.00 | 62 | 1009.4 |
| 20260509190125 | 89 | 47 | 0.0 | 1.0 | 0.00 | 0.00 | 0.00 | 62 | 1009.4 |
| 20260509185055 | 88 | 143 | 0.0 | 3.0 | 0.00 | 0.01 | 0.00 | 64 | 1009.6 |
| 20260509184045 | 87 | 127 | 1.0 | 3.0 | 0.00 | 0.01 | 0.00 | 65 | 1009.8 |
| 20260509183034 | 87 | 353 | 0.0 | 2.0 | 0.00 | 0.01 | 0.00 | 69 | 1009.8 |
| 20260509182044 | 87 | 313 | 1.0 | 2.0 | 0.00 | 0.01 | 0.00 | 65 | 1009.9 |
| 20260509181135 | 87 | 295 | 1.0 | 2.0 | 0.00 | 0.01 | 0.00 | 66 | 1010.2 |
| 20260509180106 | 86 | 171 | 1.0 | 3.0 | 0.00 | 0.01 | 0.00 | 68 | 1010.4 |
| 20260509175116 | 85 | 204 | 1.0 | 3.0 | 0.00 | 0.01 | 0.00 | 69 | 1010.4 |
| 20260509174045 | 85 | 210 | 1.0 | 3.0 | 0.00 | 0.01 | 0.00 | 72 | 1010.7 |
| 20260509173035 | 86 | 149 | 2.0 | 4.0 | 0.00 | 0.01 | 0.00 | 70 | 1010.7 |
| 20260509172025 | 85 | 127 | 2.0 | 6.0 | 0.00 | 0.01 | 0.00 | 72 | 1010.8 |
| 20260509171015 | 83 | 280 | 2.0 | 4.0 | 0.00 | 0.01 | 0.00 | 77 | 1010.6 |
| 20260509170106 | 82 | 0.0 | 1.0 | 0.00 | 0.01 | 0.00 | 78 | 1011.0 | |
| 20260509165056 | 81 | 0.0 | 1.0 | 0.00 | 0.01 | 0.00 | 81 | 1010.9 | |
| 20260509164046 | 81 | 0.0 | 1.0 | 0.00 | 0.01 | 0.00 | 82 | 1011.0 | |
| 20260509163036 | 80 | 29 | 1.0 | 2.0 | 0.00 | 0.01 | 0.00 | 82 | 1011.1 |
| 20260509162026 | 80 | 0.0 | 1.0 | 0.00 | 0.01 | 0.00 | 84 | 1011.0 | |
| 20260509161016 | 80 | 0.0 | 2.0 | 0.00 | 0.01 | 0.00 | 83 | 1011.2 | |
| 20260509160107 | 80 | 0.0 | 0.0 | 0.00 | 0.01 | 0.00 | 84 | 1011.0 | |
| 20260509155137 | 79 | 307 | 0.0 | 1.0 | 0.00 | 0.01 | 0.00 | 85 | 1011.1 |
| 20260509154047 | 79 | 0.0 | 0.0 | 0.00 | 0.01 | 0.00 | 86 | 1011.3 | |
| 20260509153037 | 79 | 28 | 0.0 | 1.0 | 0.00 | 0.01 | 0.00 | 87 | 1011.0 |
| 20260509152027 | 79 | 65 | 0.0 | 1.0 | 0.00 | 0.01 | 0.00 | 87 | 1010.9 |
| 20260509151037 | 78 | 40 | 1.0 | 3.0 | 0.00 | 0.01 | 0.00 | 87 | 1010.9 |
| 20260509150108 | 78 | 0.0 | 1.0 | 0.00 | 0.01 | 0.00 | 88 | 1010.9 | |
| 20260509145058 | 78 | 0.0 | 1.0 | 0.00 | 0.01 | 0.00 | 89 | 1010.6 | |
| 20260509144127 | 78 | 0.0 | 0.0 | 0.00 | 0.01 | 0.00 | 90 | 1010.5 | |
| 20260509143038 | 77 | 0.0 | 0.0 | 0.00 | 0.01 | 0.00 | 91 | 1010.2 | |
| 20260509142147 | 76 | 0.0 | 0.0 | 0.00 | 0.01 | 0.00 | 92 | 1010.2 | |
| 20260509141018 | 76 | 0.0 | 0.0 | 0.00 | 0.01 | 0.00 | 93 | 1010.3 | |
| 20260509140109 | 76 | 0.0 | 1.0 | 0.00 | 0.01 | 0.00 | 93 | 1009.9 | |
| 20260509135059 | 76 | 156 | 0.0 | 1.0 | 0.00 | 0.01 | 0.00 | 93 | 1010.1 |
| 20260509134049 | 76 | 107 | 0.0 | 2.0 | 0.00 | 0.01 | 0.00 | 94 | 1010.7 |
| 20260509133059 | 76 | 0.0 | 2.0 | 0.00 | 0.01 | 0.00 | 94 | 1010.7 | |
| 20260509132028 | 76 | 42 | 0.0 | 2.0 | 0.00 | 0.01 | 0.00 | 95 | 1010.9 |
| 20260509131038 | 76 | 205 | 0.0 | 1.0 | 0.00 | 0.01 | 0.00 | 96 | 1011.0 |
| 20260509130109 | 75 | 0.0 | 0.0 | 0.00 | 0.01 | 0.00 | 96 | 1011.2 | |
| 20260509125059 | 75 | 0.0 | 0.0 | 0.00 | 0.01 | 0.00 | 96 | 1011.1 | |
| 20260509124049 | 75 | 0.0 | 0.0 | 0.00 | 0.01 | 0.00 | 96 | 1010.7 | |
| 20260509123039 | 74 | 0.0 | 0.0 | 0.00 | 0.01 | 0.00 | 96 | 1010.9 | |
| 20260509122029 | 74 | 0.0 | 0.0 | 0.00 | 0.01 | 0.00 | 96 | 1011.0 | |
| 20260509121019 | 74 | 0.0 | 0.0 | 0.00 | 0.01 | 0.00 | 96 | 1010.9 | |
| 20260509120110 | 74 | 0.0 | 0.0 | 0.00 | 0.01 | 0.00 | 96 | 1010.9 | |
| 20260509115120 | 74 | 0.0 | 0.0 | 0.00 | 0.01 | 0.00 | 96 | 1010.5 | |
| 20260509114050 | 74 | 0.0 | 0.0 | 0.00 | 0.01 | 0.00 | 96 | 1010.8 | |
| 20260509113100 | 74 | 0.0 | 0.0 | 0.00 | 0.01 | 0.00 | 96 | 1010.7 | |
| 20260509112030 | 74 | 0.0 | 0.0 | 0.00 | 0.01 | 0.00 | 96 | 1010.9 | |
| 20260509111020 | 74 | 0.0 | 0.0 | 0.00 | 0.01 | 0.00 | 96 | 1010.6 | |
| 20260509110211 | 74 | 0.0 | 0.0 | 0.00 | 0.01 | 0.00 | 95 | 1010.3 | |
| 20260509105100 | 74 | 0.0 | 0.0 | 0.00 | 0.01 | 0.00 | 95 | 1010.2 | |
| 20260509104050 | 74 | 0.0 | 0.0 | 0.00 | 0.01 | 0.00 | 95 | 1010.1 | |
| 20260509103100 | 75 | 0.0 | 1.0 | 0.00 | 0.01 | 0.00 | 95 | 1010.1 | |
| 20260509102051 | 75 | 202 | 0.0 | 1.0 | 0.00 | 0.01 | 0.00 | 95 | 1010.2 |
| 20260509101020 | 75 | 0.0 | 0.0 | 0.00 | 0.01 | 0.00 | 95 | 1010.1 | |
| 20260509100111 | 75 | 0.0 | 0.0 | 0.00 | 0.01 | 0.00 | 95 | 1009.9 | |
| 20260509095121 | 75 | 0.0 | 0.0 | 0.00 | 0.01 | 0.00 | 95 | 1009.7 | |
| 20260509094051 | 75 | 0.0 | 0.0 | 0.00 | 0.01 | 0.00 | 95 | 1009.7 | |
| 20260509093041 | 75 | 0.0 | 0.0 | 0.00 | 0.01 | 0.00 | 95 | 1009.7 | |
| 20260509092031 | 75 | 0.0 | 0.0 | 0.00 | 0.01 | 0.00 | 95 | 1009.8 | |
| 20260509091021 | 75 | 0.0 | 0.0 | 0.00 | 0.01 | 0.00 | 95 | 1010.1 | |
| 20260509090112 | 75 | 0.0 | 0.0 | 0.00 | 0.01 | 0.00 | 95 | 1010.1 | |
| 20260509085102 | 75 | 0.0 | 0.0 | 0.00 | 0.01 | 0.00 | 95 | 1010.2 | |
| 20260509084052 | 75 | 0.0 | 0.0 | 0.00 | 0.01 | 0.00 | 95 | 1010.3 | |
| 20260509083042 | 75 | 0.0 | 0.0 | 0.00 | 0.01 | 0.00 | 95 | 1010.2 | |
| 20260509082052 | 75 | 0.0 | 0.0 | 0.00 | 0.01 | 0.00 | 95 | 1010.2 | |
| 20260509081022 | 75 | 155 | 0.0 | 2.0 | 0.00 | 0.01 | 0.00 | 95 | 1010.1 |
| 20260509080113 | 75 | 0.0 | 1.0 | 0.00 | 0.01 | 0.00 | 95 | 1010.0 | |
| 20260509075103 | 75 | 0.0 | 1.0 | 0.00 | 0.01 | 0.00 | 95 | 1010.0 | |
| 20260509074053 | 75 | 57 | 0.0 | 2.0 | 0.00 | 0.01 | 0.00 | 95 | 1010.1 |
| 20260509073043 | 75 | 236 | 1.0 | 4.0 | 0.00 | 0.01 | 0.00 | 95 | 1009.8 |
| 20260509072033 | 75 | 193 | 1.0 | 2.0 | 0.00 | 0.01 | 0.00 | 95 | 1009.8 |
| 20260509071022 | 75 | 222 | 1.0 | 2.0 | 0.00 | 0.01 | 0.00 | 95 | 1010.0 |
| 20260509070114 | 74 | 102 | 1.0 | 3.0 | 0.00 | 0.01 | 0.00 | 95 | 1010.2 |
| 20260509065104 | 74 | 142 | 0.0 | 1.0 | 0.00 | 0.01 | 0.00 | 94 | 1010.2 |
| 20260509064053 | 75 | 0.0 | 1.0 | 0.00 | 0.01 | 0.00 | 94 | 1010.4 | |
| 20260509063043 | 75 | 0.0 | 0.0 | 0.00 | 0.01 | 0.00 | 94 | 1010.5 | |
| 20260509062034 | 75 | 0.0 | 0.0 | 0.00 | 0.01 | 0.00 | 94 | 1010.5 | |
| 20260509061023 | 75 | 28 | 0.0 | 2.0 | 0.00 | 0.01 | 0.00 | 94 | 1010.7 |
| 20260509060114 | 75 | 180 | 0.0 | 3.0 | 0.00 | 0.01 | 0.00 | 93 | 1010.5 |
| 20260509055124 | 75 | 0.0 | 1.0 | 0.00 | 0.01 | 0.00 | 93 | 1010.7 | |
| 20260509054054 | 75 | 191 | 0.0 | 2.0 | 0.00 | 0.01 | 0.00 | 93 | 1010.6 |
| 20260509053044 | 75 | 0.0 | 1.0 | 0.00 | 0.01 | 0.00 | 93 | 1010.6 | |
| 20260509052035 | 74 | 276 | 0.0 | 2.0 | 0.00 | 0.01 | 0.00 | 93 | 1010.7 |
| 20260509051024 | 74 | 210 | 1.0 | 2.0 | 0.00 | 0.01 | 0.00 | 93 | 1010.7 |
| 20260509050115 | 74 | 235 | 0.0 | 2.0 | 0.00 | 0.01 | 0.00 | 93 | 1010.6 |
| 20260509045125 | 74 | 354 | 1.0 | 2.0 | 0.00 | 0.01 | 0.01 | 93 | 1010.6 |
| 20260509044055 | 74 | 76 | 0.0 | 2.0 | 0.00 | 0.01 | 0.01 | 92 | 1010.7 |
| 20260509043045 | 74 | 248 | 0.0 | 1.0 | 0.00 | 0.01 | 0.01 | 92 | 1010.7 |
| 20260509042035 | 74 | 243 | 0.0 | 1.0 | 0.00 | 0.01 | 0.01 | 92 | 1010.7 |
| 20260509041025 | 74 | 48 | 0.0 | 2.0 | 0.00 | 0.01 | 0.01 | 92 | 1010.6 |
| 20260509040116 | 74 | 131 | 0.0 | 2.0 | 0.00 | 0.01 | 0.01 | 91 | 1010.6 |
| 20260509035106 | 74 | 194 | 0.0 | 2.0 | 0.00 | 0.01 | 0.01 | 91 | 1010.4 |
| 20260509034056 | 74 | 217 | 0.0 | 1.0 | 0.00 | 0.01 | 0.01 | 91 | 1010.4 |
| 20260509033046 | 74 | 281 | 1.0 | 3.0 | 0.00 | 0.01 | 0.01 | 90 | 1010.3 |
| 20260509032036 | 74 | 300 | 0.0 | 3.0 | 0.00 | 0.01 | 0.01 | 90 | 1010.0 |
| 20260509031025 | 74 | 308 | 1.0 | 2.0 | 0.00 | 0.01 | 0.01 | 90 | 1010.2 |
| 20260509030117 | 74 | 244 | 2.0 | 4.0 | 0.00 | 0.01 | 0.01 | 90 | 1010.1 |
| 20260509025107 | 74 | 267 | 1.0 | 2.0 | 0.00 | 0.01 | 0.01 | 90 | 1010.0 |
| 20260509024117 | 74 | 84 | 1.0 | 4.0 | 0.00 | 0.01 | 0.01 | 90 | 1010.1 |
| 20260509023047 | 74 | 347 | 1.0 | 2.0 | 0.00 | 0.01 | 0.01 | 90 | 1009.8 |
| 20260509022037 | 74 | 262 | 0.0 | 2.0 | 0.00 | 0.01 | 0.01 | 90 | 1009.9 |